EHI
0 0 0 0 1 0 0 0 0 0 0 0 0 0 0 0 0 0 0 0 0 0 0 0 0 0 0 0 0 0 0 0 0 0 0 0 0 0 0 0 0 0 0
0 0 0 1 1 1 0 0 0 0 0 0 0 0 0 0 0 0 0 0 0 0 0 0 0 0 0 0 0 0 0 0 0 0 0 0 0 0 0 0 0 0 0
0 0 0 2 3 3 1 0 0 0 0 0 0 0 0 0 0 0 0 0 0 0 0 0 0 0 0 0 0 0 0 0 0 0 0 0 0 0 0 0 0 0 0
0 0 1 4 6 5 1 0 0 0 0 0 0 0 0 0 0 0 0 0 0 0 0 0 0 0 0 0 0 0 0 0 0 0 0 0 0 0 0 0 0 0 0
0 0 1 5 7 6 3 1 0 0 0 0 0 0 0 0 0 0 0 0 0 0 0 0 0 0 0 0 0 0 0 0 0 0 0 0 0 0 0 0 0 0 0
0 0 1 2 4 6 5 2 0 0 0 0 0 0 0 0 0 0 0 0 0 0 0 0 0 0 0 0 0 0 0 0 0 0 0 0 0 0 0 0 0 0 0
0 0 0 0 2 6 5 1 0 0 0 0 0 0 0 0 0 0 0 0 0 0 0 0 0 0 0 0 0 0 0 0 0 0 0 0 0 0 0 0 0 0 0
1 1 0 0 2 4 4 1 0 0 0 0 0 0 0 0 0 0 0 0 0 0 0 0 0 0 0 0 0 0 0 0 0 0 0 0 0 0 0 0 0 0 0
3 4 3 1 2 3 4 2 1 0 0 0 0 0 0 0 0 0 0 0 0 0 0 0 0 0 0 0 0 0 0 0 0 0 0 0 0 0 0 0 0 0 0
4 5 6 4 2 3 3 2 1 0 0 0 0 0 0 0 0 0 0 0 0 0 0 0 0 0 0 0 0 0 0 0 0 0 0 0 0 0 0 0 0 0 0
3 4 5 3 2 2 1 1 0 0 0 0 0 0 0 0 0 0 0 0 0 0 0 0 0 0 0 0 0 0 0 0 0 0 0 0 0 0 0 0 0 0 0
3 3 3 1 0 0 0 0 0 0 0 0 0 0 0 0 0 0 0 0 0 0 0 0 0 0 0 0 0 0 0 0 0 0 0 0 0 0 0 0 0 0 0
3 3 2 1 0 0 0 0 0 0 0 0 0 0 0 0 0 0 0 0 0 0 0 0 0 0 0 0 0 0 0 0 0 0 0 0 0 0 0 0 0 0 0
2 3 2 1 0 0 0 0 0 0 0 0 0 0 0 0 0 0 0 0 0 0 0 0 0 0 0 0 0 0 0 0 0 0 0 0 0 0 0 0 0 0 0
1 2 2 2 0 0 0 0 0 0 0 0 0 0 0 0 0 0 0 0 0 0 0 0 0 0 0 0 0 0 0 0 0 0 0 0 0 0 0 0 0 0 0
0 0 2 3 2 1 0 0 0 0 0 0 0 0 0 0 0 0 0 0 0 0 0 0 0 0 0 0 0 0 0 0 0 0 0 0 0 0 0 0 0 0 0
0 0 1 2 3 2 1 0 0 0 0 0 0 0 0 0 0 0 0 0 0 0 0 0 0 0 0 0 0 0 0 0 0 0 0 0 0 0 0 0 0 0 0
0 0 0 2 3 2 1 0 0 0 0 0 0 0 0 0 0 0 0 0 0 0 0 0 0 0 0 0 0 0 0 0 0 0 0 0 0 0 0 0 0 0 0
0 0 1 2 2 1 0 0 0 0 0 0 0 0 0 0 0 0 0 0 0 0 0 0 0 0 0 0 0 0 0 0 0 0 0 0 0 0 0 0 0 0 0
0 1 4 4 2 0 0 0 0 0 0 0 0 0 0 0 0 0 0 0 0 0 0 0 0 0 0 0 0 0 0 0 0 0 0 0 0 0 0 0 0 0 0
0 3 8 7 2 0 0 0 0 0 0 0 0 0 0 0 0 0 0 0 0 0 0 0 0 0 0 0 0 0 0 0 0 0 0 0 0 0 0 0 0 0 0
0 3 6 4 1 0 0 0 0 0 0 0 0 0 0 0 0 0 0 0 0 0 0 0 0 0 0 0 0 0 0 0 0 0 0 0 0 0 0 0 0 0 0
0 1 2 1 0 0 0 0 0 0 0 0 0 0 0 0 0 0 0 0 0 0 0 0 0 0 0 0 0 0 0 0 0 0 0 0 0 0 0 0 0 0 0
0 0 0 0 0 0 0 0 0 0 0 0 0 0 0 0 0 0 0 0 0 0 0 0 0 0 0 0 0 0 0 0 0 0 0 0 0 0 0 0 0 0 0
0 0 0 0 0 0 0 0 0 0 0 0 0 0 0 0 0 0 0 0 0 0 0 0 0 0 0 0 0 0 0 0 0 0 0 0 0 0 0 0 0 0 0
0 0 0 0 0 0 0 0 0 0 0 0 0 0 0 0 0 0 0 0 0 0 0 0 0 0 0 0 0 0 0 0 0 0 0 0 0 0 0 0 0 0 0
Wind_Speed
4 6 15 18 18 16 14 12 9 8 8 6 6 8 9 8 9 7 6 5 5 5 6 7 7 9 9 7 6 4 5 4 5 4 4 5 4 4 5 5 6 4 4
7 7 13 16 18 16 14 12 10 9 8 6 6 9 8 6 5 5 6 6 5 5 7 7 6 6 7 7 7 5 3 3 3 3 3 4 4 4 5 7 3 0 4
8 8 8 14 17 16 14 12 10 9 9 7 7 6 6 5 6 7 8 7 4 4 6 6 6 6 6 6 6 5 5 5 5 4 4 3 3 5 5 7 0 1 6
8 7 6 14 16 15 14 13 11 9 8 8 7 8 7 6 6 6 7 6 3 2 4 4 4 6 6 5 6 6 6 6 5 4 3 3 4 7 8 6 5 5 6
6 6 7 14 15 15 15 13 11 9 9 8 7 5 5 6 8 8 8 6 5 3 3 3 3 3 5 6 6 5 5 5 3 3 1 2 3 7 10 8 7 6 6
6 5 7 12 12 13 14 13 11 9 8 7 6 4 4 5 7 8 5 7 6 4 2 1 2 3 5 7 8 7 6 3 1 0 2 4 4 8 11 10 10 9 9
5 4 5 10 11 13 14 13 11 9 8 7 7 6 4 2 4 9 7 7 6 3 1 2 4 6 7 8 8 8 8 6 2 1 3 4 6 11 12 12 12 13 12
6 4 3 7 9 11 12 11 10 9 8 7 7 6 3 4 8 2 5 7 5 2 3 5 7 8 8 8 8 8 6 4 2 2 4 5 9 14 14 13 13 13 15
5 5 3 3 5 9 10 10 8 8 7 7 6 4 2 2 6 7 3 4 3 2 4 6 9 9 8 8 8 8 6 5 3 2 4 4 11 15 15 14 13 13 14
4 5 5 3 3 4 5 7 7 6 6 5 4 3 2 1 3 5 5 2 2 4 6 8 9 8 8 8 9 9 7 5 3 3 3 6 13 15 15 15 15 15 15
6 6 6 5 4 3 4 5 6 6 6 6 4 4 3 1 1 2 3 3 4 5 7 8 9 10 9 9 10 10 7 3 3 3 3 9 13 14 14 15 15 16 16
11 10 7 7 7 4 3 3 2 3 4 4 3 3 2 1 1 2 3 3 4 5 6 6 10 10 7 4 6 7 4 3 3 3 4 11 11 11 12 13 14 14 14
9 10 10 8 7 5 3 3 2 2 2 3 3 3 2 2 1 1 1 2 2 2 2 4 7 5 5 4 4 3 3 3 2 3 5 11 11 10 10 10 10 10 11
7 9 9 9 8 6 4 3 3 2 2 2 3 3 3 2 1 1 1 2 2 3 4 3 3 4 5 5 5 4 4 3 3 3 5 12 12 11 10 10 12 12 13
8 10 11 10 8 7 6 4 3 3 3 3 3 3 3 3 3 3 4 4 4 4 3 3 4 4 5 5 5 5 6 6 5 4 4 11 15 14 14 15 14 14 13
11 10 12 13 11 9 7 5 4 3 3 3 3 4 5 5 5 5 5 5 4 3 4 4 4 4 4 4 5 5 4 5 4 5 5 7 14 16 16 16 16 16 15
8 9 12 12 12 10 8 6 5 5 5 4 5 6 7 7 6 6 6 4 3 3 4 4 3 3 5 5 6 5 4 4 4 5 5 4 7 12 16 17 17 16 16
6 7 9 10 11 11 8 7 5 5 5 5 6 6 8 8 7 6 5 4 3 4 4 4 4 4 5 6 6 4 3 3 3 4 4 5 4 4 9 15 16 16 16
7 7 10 10 11 12 11 9 7 6 5 5 6 6 7 8 8 7 6 4 5 5 5 5 4 4 4 7 8 6 4 2 2 3 5 5 4 4 3 7 11 12 13
6 8 11 11 12 12 11 9 8 7 6 6 5 6 8 7 8 7 6 5 5 5 5 5 4 4 2 4 7 7 4 2 1 3 4 3 2 2 2 2 2 3 9
5 9 13 14 13 13 11 9 7 7 5 5 5 7 7 7 7 7 5 5 6 5 5 5 3 5 4 5 5 7 5 3 3 3 2 1 1 2 2 2 3 3 2
5 9 13 14 13 12 10 8 7 7 6 5 4 5 5 7 7 7 6 5 5 4 6 6 5 3 3 5 4 3 6 7 6 7 4 2 3 4 3 4 5 5 3
6 7 11 14 14 12 12 11 11 10 7 4 3 3 4 6 7 7 6 6 5 5 5 4 3 4 3 4 4 4 4 5 6 6 4 4 6 4 4 5 6 6 5
8 7 10 13 13 13 14 14 17 11 8 5 4 4 5 6 6 6 6 7 6 5 5 3 3 2 3 2 3 3 1 3 4 7 5 5 4 5 5 6 5 7 7
9 9 11 12 13 13 14 15 14 11 8 7 5 7 6 5 5 6 7 7 6 5 4 4 4 3 2 1 1 2 2 2 1 3 8 8 9 7 6 5 6 7 9
9 10 12 13 13 13 14 14 15 16 14 11 7 6 5 4 4 6 6 6 5 5 4 3 3 2 2 1 0 1 1 1 2 3 7 12 13 8 7 7 7 7 6
Wind_Direction
219 189 184 163 164 157 153 151 144 134 123 125 143 138 129 131 129 134 131 113 92 55 42 41 28 23 38 48 63 68 84 61 36 31 32 16 356 327 287 253 254 236 249
168 178 190 166 158 157 157 156 152 147 138 139 147 132 125 124 134 139 134 115 92 63 39 28 26 19 25 30 28 22 13 355 0 5 24 17 3 337 303 280 280 222 276
149 170 190 161 153 158 160 159 157 157 154 148 150 141 132 154 156 159 147 126 102 72 44 34 33 25 17 11 5 356 349 350 349 342 21 20 344 329 313 290 228 284 281
143 160 170 157 154 160 161 160 161 164 163 159 160 166 180 189 154 155 148 132 144 92 55 46 41 27 23 10 358 346 337 337 359 20 37 4 341 327 321 287 237 235 265
137 144 157 158 156 162 161 164 165 169 170 172 176 175 193 196 184 174 166 164 157 128 84 64 50 12 359 350 343 338 334 341 2 44 10 323 318 313 316 300 266 263 278
133 128 152 153 159 164 159 166 170 174 177 180 186 192 208 216 214 207 183 154 148 144 132 56 9 339 340 336 329 326 320 317 345 108 278 295 302 293 293 289 282 270 261
131 122 143 155 164 161 161 167 172 178 181 179 184 202 228 317 296 224 191 143 145 153 221 307 317 324 331 331 328 325 333 350 21 259 278 282 284 285 284 278 273 273 267
142 139 141 161 166 163 163 164 172 179 183 179 183 195 220 338 357 347 182 152 155 198 289 307 317 325 326 328 329 328 329 322 310 266 269 272 278 284 286 283 276 271 271
145 152 152 143 164 165 161 160 170 180 181 174 176 182 188 9 6 22 34 145 175 267 307 309 314 323 326 330 334 335 339 331 322 281 272 270 280 286 287 285 277 268 261
161 168 168 146 139 140 145 159 170 175 168 152 143 128 115 41 347 10 17 14 323 301 301 306 309 314 327 340 341 343 349 346 331 303 286 289 298 299 294 292 285 275 267
192 193 185 178 173 146 144 161 171 168 158 140 128 116 97 48 335 331 329 309 307 304 306 316 333 354 11 12 10 10 13 10 346 323 300 303 310 310 308 305 299 291 281
202 201 196 193 194 173 160 145 147 149 143 139 130 123 107 86 349 313 329 322 313 318 318 356 32 35 32 29 25 22 23 9 3 336 318 323 322 318 314 313 310 308 303
204 206 202 193 190 172 164 138 135 144 140 143 151 151 127 97 46 23 351 359 344 353 11 42 49 39 27 24 27 21 12 8 345 327 329 341 340 332 327 321 319 324 336
196 205 202 194 181 169 158 154 158 158 156 162 171 166 142 120 86 76 88 91 70 62 63 47 47 42 31 23 23 17 14 355 341 338 349 4 12 7 3 9 13 13 4
213 204 195 186 181 172 161 156 162 167 169 170 172 166 150 133 120 105 76 66 64 62 67 55 43 41 30 15 13 16 10 355 354 355 357 13 25 20 23 21 16 10 3
226 215 190 186 179 167 164 162 164 153 151 159 158 149 138 121 110 96 76 64 59 60 59 60 53 45 33 13 4 7 5 356 7 10 8 14 25 25 25 20 14 6 7
230 213 190 181 169 164 160 156 148 148 147 138 124 117 112 105 100 94 88 75 61 58 62 56 42 42 31 11 353 345 358 356 23 21 17 18 17 24 25 21 16 10 8
227 196 186 173 164 155 143 130 125 130 122 119 112 111 108 104 104 101 96 81 64 55 52 46 29 24 22 5 333 326 350 350 29 22 30 27 14 16 18 19 18 12 6
210 180 165 157 153 141 126 114 108 105 108 109 107 107 108 106 103 99 91 80 67 51 43 37 29 26 16 352 327 317 338 325 49 24 36 27 18 13 356 7 11 6 1
189 163 148 143 142 131 119 108 100 94 87 86 95 106 105 104 102 97 88 74 65 57 39 29 26 15 12 336 319 315 327 337 358 22 26 11 359 345 314 296 295 327 349
168 155 151 142 145 139 132 127 126 115 105 91 89 94 100 103 99 96 91 79 71 70 58 37 22 19 1 343 341 331 331 340 299 302 332 313 306 272 249 247 238 227 264
182 161 152 146 150 146 138 131 124 121 105 88 86 89 95 98 97 96 93 85 81 78 58 43 34 12 358 9 5 335 342 336 344 315 321 322 344 339 336 323 311 294 259
192 169 149 145 150 142 127 114 108 108 103 97 97 90 84 91 92 92 92 89 79 72 66 52 35 45 7 354 22 29 352 315 315 306 324 341 337 326 299 292 285 281 275
177 157 146 146 144 139 137 139 143 147 144 138 142 120 97 88 91 92 89 81 75 71 66 55 51 47 53 10 341 12 302 269 302 311 309 308 313 298 275 270 267 269 275
152 151 149 145 143 145 146 150 146 135 122 119 120 112 99 88 87 86 82 79 75 72 67 55 49 49 69 93 334 319 320 297 275 288 294 305 306 290 270 251 260 277 278
145 150 152 148 148 150 150 150 145 136 133 133 135 122 115 103 83 77 79 79 75 67 60 52 48 49 48 48 358 250 252 288 296 285 291 303 301 296 288 280 274 266 265